EW1296 Weather Reports


Display with metric or nautical units.
time (UTC)temp
F
wind
direction
speed
MPH
gust
MPH
rain 1hr
in
rain 24hr
in
rain mn
in
humidity
%
barometer
mb
20260901092518 73 248 2.0 4.0 0.00 0.02 0.01 92 1016.1
20260901092017 73 203 1.0 4.0 0.00 0.02 0.01 92 1016.1
20260901091517 73 248 2.0 4.0 0.00 0.02 0.01 92 1016.2
20260901091018 73 225 2.0 6.0 0.00 0.02 0.01 92 1016.2
20260901090518 73 248 2.0 4.0 0.00 0.02 0.01 92 1016.3
20260901090017 73 225 2.0 4.0 0.00 0.02 0.01 92 1016.3
20260901085517 73 248 2.0 4.0 0.00 0.02 0.01 91 1016.4
20260901085037 73 225 2.0 4.0 0.00 0.02 0.01 91 1016.4
20260901084537 73 225 4.0 6.0 0.00 0.02 0.01 91 1016.4
20260901084018 73 225 2.0 5.0 0.00 0.02 0.01 91 1016.5
20260901083537 73 225 2.0 5.0 0.00 0.02 0.01 91 1016.5
20260901083017 73 248 2.0 4.0 0.00 0.02 0.01 91 1016.5
20260901082518 73 248 1.0 4.0 0.00 0.02 0.01 91 1016.5
20260901082017 73 270 1.0 3.0 0.00 0.02 0.01 91 1016.5
20260901081517 73 270 2.0 6.0 0.00 0.02 0.01 91 1016.6
20260901081038 73 270 2.0 7.0 0.00 0.02 0.01 91 1016.5
20260901080517 73 270 3.0 7.0 0.00 0.02 0.01 91 1016.6
20260901080017 73 270 1.0 4.0 0.00 0.02 0.01 91 1016.5
20260901075517 73 225 1.0 3.0 0.00 0.02 0.01 91 1016.4
20260901075017 73 225 2.0 5.0 0.00 0.02 0.01 91 1016.4
20260901074517 73 293 1.0 4.0 0.00 0.02 0.01 91 1016.4
20260901074018 73 248 3.0 5.0 0.00 0.02 0.01 91 1016.5
20260901073517 73 225 3.0 8.0 0.00 0.02 0.01 91 1016.5
20260901073018 73 225 2.0 6.0 0.00 0.02 0.01 91 1016.4
20260901072517 73 225 3.0 8.0 0.00 0.02 0.01 91 1016.5
20260901072018 73 225 2.0 5.0 0.00 0.02 0.01 91 1016.6
20260901071517 73 248 3.0 6.0 0.00 0.02 0.01 91 1016.7
20260901071017 73 225 3.0 9.0 0.00 0.02 0.01 90 1016.7
20260901070517 73 225 2.0 5.0 0.00 0.02 0.01 90 1016.8
20260901070017 73 225 1.0 4.0 0.00 0.02 0.01 90 1016.8
20260901065517 73 225 2.0 5.0 0.00 0.02 0.01 90 1016.7
20260901065017 73 225 1.0 5.0 0.00 0.02 0.01 90 1016.8
20260901064518 73 225 1.0 4.0 0.00 0.02 0.01 90 1016.9
20260901064017 73 225 3.0 6.0 0.00 0.02 0.01 90 1017.0
20260901063517 73 225 1.0 5.0 0.00 0.02 0.01 90 1017.0
20260901063018 73 225 1.0 5.0 0.00 0.02 0.01 90 1017.0
20260901062517 73 225 2.0 7.0 0.00 0.02 0.01 90 1017.0
20260901062017 73 225 1.0 5.0 0.00 0.02 0.01 90 1017.1
20260901061516 73 225 2.0 4.0 0.00 0.02 0.01 90 1017.2
20260901061018 73 225 2.0 6.0 0.00 0.02 0.01 90 1017.2
20260901060537 73 225 1.0 3.0 0.00 0.02 0.01 89 1017.2
20260901060017 73 225 2.0 5.0 0.01 0.02 0.01 89 1017.3
20260901055517 73 0.0 3.0 0.01 0.02 0.01 89 1017.2
20260901055017 73 225 2.0 6.0 0.01 0.02 0.01 89 1017.4
20260901054517 73 225 3.0 6.0 0.01 0.02 0.01 89 1017.3
20260901054037 73 225 2.0 6.0 0.01 0.02 0.01 88 1017.4
20260901053517 73 225 2.0 6.0 0.01 0.02 0.01 88 1017.5
20260901053017 73 225 2.0 4.0 0.01 0.02 0.01 88 1017.6
20260901052516 73 248 2.0 4.0 0.01 0.02 0.01 88 1017.7
20260901052017 73 225 2.0 5.0 0.01 0.02 0.01 87 1017.6
20260901051517 73 248 2.0 5.0 0.01 0.02 0.01 87 1017.6
20260901051016 74 225 2.0 5.0 0.01 0.02 0.01 86 1017.7
20260901050517 74 225 2.0 6.0 0.01 0.02 0.01 86 1017.7
20260901050017 74 225 2.0 5.0 0.00 0.01 0.00 86 1017.6
20260901045518 73 225 2.0 5.0 0.00 0.01 0.00 85 1017.8
20260901045037 73 225 1.0 3.0 0.00 0.01 0.00 85 1017.7
20260901044536 74 225 2.0 8.0 0.00 0.01 0.00 85 1017.8
20260901044016 74 225 2.0 6.0 0.00 0.01 0.00 85 1017.7
20260901043537 74 225 2.0 4.0 0.00 0.01 0.00 85 1017.8
20260901043016 74 225 1.0 4.0 0.00 0.01 0.00 85 1017.8
20260901042517 74 248 1.0 5.0 0.00 0.01 0.00 85 1017.8
20260901042017 74 225 1.0 7.0 0.00 0.01 0.00 85 1017.9
20260901041517 74 225 2.0 5.0 0.00 0.01 0.00 85 1018.0
20260901041016 74 225 1.0 4.0 0.00 0.01 0.00 85 1017.9
20260901040516 74 248 1.0 5.0 0.00 0.01 0.00 85 1017.9
20260901040017 74 0.0 3.0 0.00 0.01 0.01 85 1017.8
20260901035517 74 248 1.0 4.0 0.00 0.01 0.01 85 1017.8
20260901035017 74 0.0 3.0 0.00 0.01 0.01 85 1017.8
20260901034518 74 203 1.0 4.0 0.00 0.01 0.01 85 1017.9
20260901034018 74 0.0 3.0 0.00 0.01 0.01 85 1017.9
20260901033517 74 225 1.0 4.0 0.00 0.01 0.01 85 1018.0
20260901033017 74 225 1.0 3.0 0.00 0.01 0.01 85 1018.0
20260901032517 74 203 1.0 5.0 0.00 0.01 0.01 84 1018.0
20260901032017 74 203 1.0 4.0 0.00 0.01 0.01 84 1018.1
20260901031517 74 225 2.0 5.0 0.00 0.01 0.01 84 1018.0
20260901031017 74 158 1.0 3.0 0.00 0.01 0.01 84 1018.1
20260901030517 74 158 1.0 4.0 0.00 0.01 0.01 84 1018.1
20260901030057 74 248 1.0 7.0 0.00 0.01 0.01 84 1018.3
20260901025517 74 0.0 3.0 0.00 0.01 0.01 84 1018.4
20260901025017 74 225 2.0 5.0 0.00 0.01 0.01 84 1018.4
20260901024517 74 225 1.0 5.0 0.00 0.01 0.01 84 1018.5
20260901024018 74 225 1.0 4.0 0.00 0.01 0.01 84 1018.5
20260901023517 74 225 1.0 4.0 0.00 0.01 0.01 84 1018.6
20260901023017 74 0.0 3.0 0.00 0.01 0.01 84 1018.7
20260901022518 74 0.0 1.0 0.00 0.01 0.01 84 1018.6
20260901022017 74 158 1.0 4.0 0.00 0.01 0.01 84 1018.5
20260901021518 74 270 1.0 2.0 0.00 0.01 0.01 84 1018.6
20260901021017 74 158 1.0 4.0 0.00 0.01 0.01 84 1018.5
20260901020517 74 135 1.0 4.0 0.00 0.01 0.01 84 1018.5
20260901020017 74 0.0 2.0 0.00 0.01 0.01 84 1018.6
20260901015517 74 180 1.0 2.0 0.00 0.01 0.01 83 1018.6
20260901015017 74 135 1.0 5.0 0.00 0.02 0.01 83 1018.6
20260901014517 74 135 1.0 3.0 0.00 0.02 0.01 83 1018.7
20260901014017 74 158 1.0 3.0 0.00 0.02 0.01 83 1018.7
20260901013518 74 158 1.0 5.0 0.00 0.02 0.01 83 1018.7
20260901013037 74 135 1.0 3.0 0.00 0.02 0.01 83 1018.8
20260901012517 74 135 1.0 4.0 0.00 0.02 0.01 83 1018.8
20260901012017 74 135 1.0 5.0 0.00 0.02 0.01 83 1018.8
20260901011517 74 158 1.0 5.0 0.00 0.02 0.01 82 1018.8
20260901011018 74 180 1.0 5.0 0.00 0.02 0.01 82 1018.7
20260901010517 74 135 1.0 4.0 0.00 0.02 0.01 82 1018.6
20260901010057 74 135 2.0 8.0 0.00 0.02 0.01 82 1018.6
20260901005518 74 158 3.0 7.0 0.00 0.02 0.01 82 1018.5
20260901005017 74 158 2.0 5.0 0.00 0.02 0.01 82 1018.4
20260901004517 74 135 3.0 7.0 0.00 0.02 0.01 81 1018.5
20260901004017 74 158 2.0 6.0 0.00 0.02 0.01 81 1018.4
20260901003516 74 135 2.0 9.0 0.00 0.02 0.01 81 1018.4
20260901003018 74 158 1.0 4.0 0.00 0.02 0.01 81 1018.4
20260901002517 74 135 3.0 7.0 0.00 0.02 0.01 81 1018.4
20260901002017 74 135 2.0 4.0 0.00 0.02 0.01 80 1018.4
20260901001557 74 135 1.0 5.0 0.00 0.02 0.01 80 1018.5
20260901001017 74 158 1.0 4.0 0.00 0.02 0.01 80 1018.5
20260901000516 74 0.0 3.0 0.00 0.02 0.01 80 1018.4
20260901000017 74 158 1.0 6.0 0.00 0.02 0.01 80 1018.4
20260831235517 74 135 2.0 7.0 0.00 0.02 0.01 80 1018.4
20260831235016 75 135 2.0 4.0 0.00 0.02 0.01 80 1018.4
20260831234518 75 135 2.0 4.0 0.00 0.02 0.01 79 1018.5
20260831234018 75 135 1.0 5.0 0.00 0.02 0.01 79 1018.4
20260831233537 75 135 1.0 5.0 0.00 0.02 0.01 78 1018.5
20260831233017 75 135 1.0 4.0 0.00 0.02 0.01 78 1018.5
20260831232517 75 135 2.0 4.0 0.00 0.02 0.01 78 1018.5
20260831232017 75 113 2.0 5.0 0.00 0.02 0.01 78 1018.4
20260831231518 75 158 1.0 2.0 0.00 0.02 0.01 77 1018.5
20260831231038 75 135 1.0 5.0 0.00 0.02 0.01 77 1018.5
20260831230517 75 113 2.0 6.0 0.00 0.02 0.01 76 1018.5
20260831230016 76 135 1.0 3.0 0.00 0.02 0.01 76 1018.5
20260831225537 76 135 1.0 3.0 0.00 0.02 0.01 76 1018.5
20260831225017 76 135 1.0 4.0 0.00 0.02 0.01 76 1018.6
20260831224538 76 135 2.0 4.0 0.00 0.02 0.01 75 1018.5
20260831224018 76 158 2.0 4.0 0.00 0.02 0.01 74 1018.5
20260831223518 76 135 3.0 5.0 0.00 0.02 0.01 74 1018.5
20260831223016 76 135 2.0 6.0 0.00 0.02 0.01 74 1018.5
20260831222517 76 135 1.0 6.0 0.00 0.02 0.01 74 1018.5
20260831222017 76 135 1.0 4.0 0.00 0.02 0.01 74 1018.5
20260831221518 77 135 1.0 4.0 0.00 0.02 0.01 74 1018.6
20260831221018 77 135 2.0 5.0 0.00 0.02 0.01 73 1018.6
20260831220518 77 203 3.0 5.0 0.00 0.02 0.01 73 1018.7
20260831220016 77 203 1.0 3.0 0.00 0.02 0.01 73 1018.7
20260831215516 77 225 1.0 5.0 0.00 0.02 0.01 73 1018.7
20260831215036 77 180 3.0 7.0 0.00 0.02 0.01 73 1018.7
20260831214517 77 135 2.0 5.0 0.00 0.02 0.01 72 1018.7
20260831214017 77 135 2.0 5.0 0.00 0.02 0.01 72 1018.9
20260831213516 77 135 2.0 4.0 0.00 0.02 0.01 72 1018.8
20260831213016 77 135 1.0 4.0 0.00 0.02 0.01 72 1018.8
20260831212516 77 135 1.0 4.0 0.00 0.02 0.01 71 1018.9
20260831212017 78 135 1.0 4.0 0.00 0.02 0.01 71 1018.9
20260831211517 77 248 1.0 5.0 0.00 0.02 0.01 71 1019.0
20260831211018 77 135 2.0 6.0 0.00 0.02 0.01 71 1019.0
20260831210516 78 225 2.0 9.0 0.00 0.02 0.01 71 1019.0
20260831210017 78 225 3.0 9.0 0.00 0.02 0.01 71 1019.0
20260831205516 77 158 1.0 5.0 0.00 0.02 0.01 72 1018.9
20260831205016 77 113 3.0 7.0 0.00 0.02 0.01 71 1018.9
20260831204516 77 135 2.0 5.0 0.00 0.02 0.01 71 1018.8
20260831204016 77 248 1.0 4.0 0.00 0.02 0.01 71 1018.9
20260831203517 77 203 2.0 6.0 0.00 0.02 0.01 71 1019.0
20260831203016 77 135 2.0 8.0 0.00 0.02 0.01 71 1019.0
20260831202516 77 158 2.0 7.0 0.00 0.02 0.01 71 1019.0
20260831202016 77 135 2.0 8.0 0.00 0.02 0.01 72 1019.1
20260831201516 76 135 2.0 5.0 0.00 0.02 0.01 73 1019.2
20260831201016 76 158 1.0 8.0 0.00 0.02 0.01 73 1019.4
20260831200517 76 135 2.0 6.0 0.00 0.02 0.01 73 1019.4
20260831200018 76 135 1.0 4.0 0.00 0.02 0.01 73 1019.4
20260831195516 76 135 2.0 7.0 0.00 0.02 0.01 73 1019.5
20260831195056 77 158 1.0 6.0 0.00 0.02 0.01 72 1019.6
20260831194516 77 135 2.0 5.0 0.00 0.02 0.01 72 1019.6
20260831194038 78 225 3.0 8.0 0.00 0.02 0.01 71 1019.7
20260831193518 78 225 1.0 4.0 0.00 0.02 0.01 71 1019.7
20260831193037 79 158 2.0 6.0 0.00 0.02 0.01 69 1019.6
20260831192518 79 158 2.0 4.0 0.00 0.02 0.01 66 1019.7
20260831192016 79 248 2.0 4.0 0.00 0.02 0.01 64 1019.6
20260831191517 79 135 2.0 7.0 0.00 0.02 0.01 63 1019.7
20260831191016 80 158 1.0 6.0 0.00 0.02 0.01 62 1019.8
20260831190516 81 225 3.0 6.0 0.00 0.02 0.01 61 1019.9
20260831190017 82 225 3.0 8.0 0.00 0.02 0.01 60 1019.8
20260831185516 82 158 2.0 5.0 0.00 0.02 0.01 59 1019.8
20260831185017 82 225 3.0 9.0 0.00 0.02 0.01 59 1019.9
20260831184557 82 203 3.0 10.0 0.00 0.02 0.01 59 1019.9
20260831184017 82 158 2.0 11.0 0.00 0.02 0.01 59 1019.9
20260831183517 82 225 2.0 4.0 0.00 0.02 0.01 59 1019.8
20260831183016 82 248 2.0 7.0 0.00 0.02 0.01 58 1019.9
20260831182517 82 180 2.0 11.0 0.00 0.02 0.01 58 1019.8
20260831182036 82 225 3.0 9.0 0.00 0.02 0.01 58 1019.9
20260831181516 82 135 4.0 11.0 0.00 0.02 0.01 57 1019.9
20260831181017 83 203 3.0 11.0 0.00 0.02 0.01 58 1020.1
20260831180517 83 248 4.0 11.0 0.00 0.02 0.01 57 1020.0
20260831180056 83 203 2.0 9.0 0.00 0.02 0.01 57 1020.0
20260831175516 83 225 4.0 9.0 0.00 0.02 0.01 56 1020.1
20260831175016 83 135 3.0 10.0 0.00 0.02 0.01 55 1020.2
20260831174518 83 135 2.0 6.0 0.00 0.02 0.01 56 1020.1
20260831174036 83 135 3.0 7.0 0.00 0.02 0.01 56 1020.0
20260831173517 83 113 4.0 11.0 0.00 0.02 0.01 55 1019.9
20260831173016 83 113 3.0 8.0 0.00 0.02 0.01 55 1019.9
20260831172536 83 135 4.0 9.0 0.00 0.02 0.01 55 1020.0
20260831172017 83 135 2.0 6.0 0.00 0.02 0.01 55 1020.0
20260831171516 83 135 4.0 10.0 0.00 0.02 0.01 54 1020.1
20260831171016 84 225 2.0 8.0 0.00 0.02 0.01 55 1020.0
20260831170516 83 135 3.0 7.0 0.00 0.02 0.01 55 1020.0
20260831170016 83 225 2.0 8.0 0.00 0.02 0.01 56 1020.0
20260831165516 83 135 4.0 11.0 0.00 0.02 0.01 54 1020.0
20260831165017 83 68 2.0 7.0 0.00 0.02 0.01 55 1020.1
20260831164516 83 113 3.0 10.0 0.00 0.02 0.01 55 1020.1
20260831164037 83 225 2.0 7.0 0.00 0.02 0.01 57 1020.0
20260831163516 82 135 2.0 9.0 0.00 0.02 0.01 56 1020.1
20260831163017 83 158 2.0 10.0 0.00 0.02 0.01 56 1020.1
20260831162516 83 135 3.0 10.0 0.00 0.02 0.01 56 1020.3
20260831162016 83 135 1.0 6.0 0.00 0.02 0.01 57 1020.2
20260831161516 83 135 3.0 8.0 0.00 0.02 0.01 57 1020.3
20260831161016 82 270 1.0 3.0 0.00 0.02 0.01 59 1020.4
20260831160516 81 158 1.0 4.0 0.00 0.02 0.01 59 1020.3
20260831160016 81 158 2.0 6.0 0.00 0.02 0.01 58 1020.3
20260831155516 81 113 2.0 6.0 0.00 0.02 0.01 59 1020.3
20260831155017 80 135 2.0 6.0 0.00 0.02 0.01 60 1020.2
20260831154516 80 135 2.0 5.0 0.00 0.02 0.01 60 1020.2
20260831154037 80 135 2.0 7.0 0.00 0.02 0.01 60 1020.3
20260831153517 79 90 4.0 8.0 0.00 0.02 0.01 60 1020.3
20260831153016 79 113 2.0 8.0 0.00 0.02 0.01 62 1020.3
20260831152516 79 90 1.0 4.0 0.00 0.02 0.01 63 1020.3
20260831152016 79 90 2.0 7.0 0.00 0.02 0.01 63 1020.3
20260831151516 79 113 5.0 9.0 0.00 0.02 0.01 63 1020.4
20260831151036 79 135 1.0 8.0 0.00 0.02 0.01 65 1020.4
20260831150516 78 68 2.0 4.0 0.00 0.02 0.01 65 1020.5
20260831150016 77 23 1.0 6.0 0.00 0.02 0.01 65 1020.6
20260831145516 77 113 3.0 8.0 0.00 0.02 0.01 66 1020.6
20260831145016 77 135 3.0 7.0 0.00 0.02 0.01 67 1020.6
20260831144516 77 113 2.0 6.0 0.00 0.02 0.01 68 1020.5
20260831144016 76 113 2.0 7.0 0.00 0.02 0.01 68 1020.6
20260831143536 76 113 2.0 4.0 0.00 0.02 0.01 68 1020.6
20260831143016 76 68 2.0 5.0 0.00 0.02 0.01 68 1020.6
20260831142516 76 68 2.0 5.0 0.00 0.02 0.01 68 1020.6
20260831142016 76 135 2.0 4.0 0.00 0.02 0.01 68 1020.5
20260831141516 76 113 3.0 6.0 0.00 0.02 0.01 68 1020.6
20260831141015 76 68 2.0 5.0 0.00 0.02 0.01 69 1020.5
20260831140537 76 0.0 3.0 0.00 0.02 0.01 71 1020.4
20260831140015 75 315 1.0 4.0 0.00 0.02 0.01 71 1020.4
20260831135516 75 45 1.0 4.0 0.00 0.02 0.01 72 1020.4
20260831135037 75 45 1.0 3.0 0.00 0.02 0.01 72 1020.4
20260831134516 75 45 2.0 4.0 0.00 0.02 0.01 72 1020.4
20260831134015 75 45 1.0 4.0 0.00 0.02 0.01 72 1020.3
20260831133516 74 68 1.0 4.0 0.00 0.02 0.01 73 1020.3
20260831133016 74 23 2.0 6.0 0.00 0.02 0.01 72 1020.4
20260831132517 74 45 2.0 7.0 0.00 0.02 0.01 72 1020.3
20260831132016 74 23 2.0 7.0 0.00 0.02 0.01 73 1020.3
20260831131516 74 45 3.0 8.0 0.00 0.02 0.01 73 1020.4
20260831131016 74 45 2.0 6.0 0.00 0.02 0.01 73 1020.4
20260831130516 73 23 3.0 7.0 0.00 0.02 0.01 73 1020.3
20260831130015 73 23 1.0 4.0 0.00 0.02 0.01 74 1020.4
20260831125515 73 23 3.0 6.0 0.00 0.02 0.01 74 1020.4
20260831125016 73 23 1.0 4.0 0.00 0.02 0.01 74 1020.3
20260831124516 73 68 2.0 6.0 0.01 0.02 0.01 74 1020.3
20260831124016 73 68 1.0 7.0 0.01 0.02 0.01 75 1020.3
20260831123516 73 0.0 2.0 0.01 0.02 0.01 75 1020.3
20260831123016 73 45 1.0 4.0 0.01 0.02 0.01 75 1020.4
20260831122516 73 68 2.0 7.0 0.01 0.02 0.01 75 1020.3
20260831122016 73 23 3.0 7.0 0.01 0.02 0.01 75 1020.2
20260831121516 73 45 1.0 7.0 0.01 0.02 0.01 75 1020.2
20260831121016 73 23 2.0 5.0 0.01 0.02 0.01 75 1020.3
20260831120516 73 23 1.0 6.0 0.01 0.02 0.01 75 1020.3
20260831120015 73 45 1.0 4.0 0.01 0.02 0.01 75 1020.2
20260831115516 73 68 2.0 4.0 0.01 0.02 0.01 75 1020.3
20260831115016 73 68 3.0 8.0 0.01 0.02 0.01 76 1020.1
20260831114516 73 90 1.0 4.0 0.00 0.01 0.00 77 1020.1
20260831114016 73 135 2.0 9.0 0.00 0.01 0.00 77 1019.9
20260831113515 73 68 1.0 3.0 0.00 0.01 0.00 77 1019.9
20260831113015 73 68 1.0 4.0 0.00 0.01 0.00 77 1019.8
20260831112515 73 68 2.0 4.0 0.00 0.01 0.00 77 1019.7
20260831112037 73 68 2.0 5.0 0.00 0.01 0.00 77 1019.9
20260831111515 73 45 1.0 3.0 0.00 0.01 0.00 76 1020.0
20260831111016 73 68 1.0 4.0 0.00 0.01 0.00 77 1020.0
20260831110536 73 68 2.0 6.0 0.00 0.01 0.00 77 1020.0
20260831110015 73 90 1.0 5.0 0.00 0.01 0.00 77 1020.0
20260831105515 73 45 1.0 4.0 0.00 0.01 0.00 77 1019.9
20260831105016 73 45 1.0 3.0 0.00 0.01 0.00 77 1019.8
20260831104515 73 68 2.0 4.0 0.00 0.01 0.00 77 1019.7
20260831104016 73 45 1.0 5.0 0.00 0.01 0.00 78 1019.6
20260831103515 73 45 2.0 6.0 0.00 0.01 0.00 77 1019.5
20260831103015 73 23 2.0 7.0 0.00 0.01 0.00 77 1019.6
20260831102516 73 23 1.0 7.0 0.00 0.01 0.00 77 1019.4
20260831102015 73 90 1.0 7.0 0.00 0.01 0.00 76 1019.4
20260831101516 73 90 1.0 4.0 0.00 0.01 0.00 76 1019.3
20260831101015 73 90 2.0 5.0 0.00 0.01 0.00 76 1019.3
20260831100535 73 68 1.0 3.0 0.00 0.01 0.00 76 1019.3
20260831100015 73 23 1.0 4.0 0.00 0.01 0.00 76 1019.3
20260831095515 73 90 1.0 4.0 0.00 0.01 0.00 76 1019.3
20260831095037 73 45 2.0 5.0 0.00 0.01 0.00 77 1019.2
20260831094535 73 45 1.0 2.0 0.00 0.01 0.00 77 1019.1
20260831094015 73 0.0 3.0 0.00 0.01 0.00 78 1019.0
20260831093516 73 0.0 2.0 0.00 0.01 0.00 78 1019.0
20260831093037 73 0 1.0 4.0 0.00 0.01 0.00 77 1018.9